This demonstration page uses our WeatherBlox Daily Observations layout. Learn more.

Left ArrowRight Arrow

34.16533, -84.80231

Hourly Observations for July 5, 2020

Temp ( °F °C ) Dew Point ( °F °C ) Humidity (%) Winds ( mph kmh ) Pressure ( in mb ) Visibility ( mi km ) Precip ( " mm )
12:12 am 00:12 Clear with Mist and Fog 74 23.3 72 22.2 94 94 Calm 29.93 1014 3 4 0.00 0.00
12:28 am 00:28 Clear with Mist and Fog 74 23.3 71 21.7 91 91 Calm 29.93 1014 3 5 0.00 0.00
12:53 am 00:53 Clear with Mist and Fog 74 23.3 71 21.7 91 91 Calm 29.91 1013 4 6 0.00 0.00
1:53 am 01:53 Clear with Mist and Fog 73 22.8 71 21.7 94 94 Calm 29.90 1012 4 6 0.00 0.00
2:53 am 02:53 Clear with Mist and Fog 72 22.2 70 21.1 94 94 Calm 29.89 1012 3 5 0.00 0.00
3:53 am 03:53 Clear with Mist and Fog 72 22.2 70 21.1 94 94 Calm 29.88 1012 3 5 0.00 0.00
4:29 am 04:29 Clear with Mist and Fog 71 21.7 69 20.6 94 94 Calm 29.92 1013 3 4 0.00 0.00
4:38 am 04:38 Clear with Mist and Fog 72 22.2 70 21.1 94 94 Calm 29.91 1013 3 5 0.00 0.00
4:53 am 04:53 Clear with Mist and Fog 72 22.2 70 21.1 94 94 Calm 29.89 1012 3 5 0.00 0.00
5:45 am 05:45 Clear with Mist and Fog 71 21.7 69 20.6 94 94 Calm 29.93 1013 3 4 0.00 0.00
5:53 am 05:53 Clear with Mist and Fog 72 22.2 69 20.6 91 91 Calm 29.91 1013 3 5 0.00 0.00
6:41 am 06:41 Sunny with Mist and Fog 71 21.7 69 20.6 94 94 Calm 29.94 1014 3 4 0.00 0.00
6:53 am 06:53 Sunny with Mist and Fog 72 22.2 69 20.6 91 91 Calm 29.92 1013 2 3 0.00 0.00
7:32 am 07:32 Partly Cloudy with Mist and Fog 73 22.8 71 21.7 94 94 Calm 29.95 1014 2 3 0.00 0.00
7:53 am 07:53 Partly Cloudy with Mist and Fog 75 23.9 71 21.7 88 88 Calm 29.93 1014 3 5 0.00 0.00
8:53 am 08:53 Hazy 80 26.7 73 22.8 79 79 VRB 5 7 29.94 1014 6 10 0.00 0.00
9:53 am 09:53 Sunny 83 28.3 72 22.2 70 70 NE 3 6 29.95 1014 8 13 0.00 0.00
10:53 am 10:53 Sunny 86 30 73 22.8 65 65 ESE 6 9 29.95 1014 9 14 0.00 0.00
11:53 am 11:53 Sunny 88 31.1 72 22.2 59 59 SE 5 7 29.95 1014 10 16 0.00 0.00
12:53 pm 12:53 Sunny 90 32.2 70 21.1 52 52 undefined N/A 29.94 1014 10 16 0.00 0.00
1:53 pm 13:53 Mostly Sunny 91 32.8 71 21.7 52 52 SSE 7 11 29.93 1014 10 16 0.00 0.00
2:53 pm 14:53 Sunny 92 33.3 68 20 46 46 VRB 6 9 29.91 1013 10 16 0.00 0.00
3:53 pm 15:53 Mostly Sunny 93 33.9 67 19.4 42 42 SE 7 11 29.88 1012 10 16 0.00 0.00
4:53 pm 16:53 Mostly Sunny 92 33.3 65 18.3 41 41 Calm 29.87 1011 10 16 0.00 0.00
5:53 pm 17:53 Mostly Sunny 89 31.7 69 20.6 52 52 Calm 29.85 1011 10 16 0.00 0.00
6:53 pm 18:53 Sunny 89 31.7 69 20.6 52 52 SSE 3 6 29.87 1012 10 16 0.00 0.00
7:53 pm 19:53 Sunny 85 29.4 71 21.7 63 63 Calm 29.88 1012 10 16 0.00 0.00
8:53 pm 20:53 Sunny 79 26.1 72 22.2 79 79 Calm 29.90 1013 10 16 0.00 0.00
9:53 pm 21:53 Clear 76 24.4 72 22.2 88 88 Calm 29.92 1013 10 16 0.00 0.00
10:53 pm 22:53 Clear 75 23.9 71 21.7 88 88 Calm 29.93 1013 10 16 0.00 0.00
11:53 pm 23:53 Clear 75 23.9 70 21.1 84 84 Calm 29.93 1014 10 16 0.00 0.00

Powered by AerisWeather